Guymon, OK

3:39 AM CDT on July 28, 2017 (GMT -0500)
Guymon Municipal

Weather History for KGUY - August, 2013

Change the Weather History Date:

Tuesday, August 20, 2013

  Actual Average Record
Temperature  
Mean Temperature 80 °F 78 °F  
Max Temperature 93 °F 91 °F 105 °F (2007)
Min Temperature 67 °F 65 °F 55 °F (2004)
Degree Days  
Heating Degree Days 0 0  
Month to date heating degree days 0 0  
Since 1 June heating degree days 0 8  
Since 1 July heating degree days 0 0  
Cooling Degree Days 15 13  
Month to date cooling degree days 256 274  
Year to date cooling degree days 1369 1116  
Since 1 June cooling degree days 1165 1008  
Growing Degree Days 30 (Base 50)    
Moisture  
Dew Point 61 °F    
Average Humidity 57    
Maximum Humidity 81    
Minimum Humidity 32    
Precipitation  
Precipitation 0.00 in 0.11 in 0.91 in (2006)
Month to date precipitation 4.20 1.84  
Year to date precipitation 10.55 13.69  
Snow  
Snow 0.00 in - - ()
Month to date snowfall 0.0  
Since 1 June snowfall T  
Since 1 July snowfall 0.0  
Snow Depth 0.00 in    
Sea Level Pressure  
Sea Level Pressure 29.87 in    
Wind  
Wind Speed 10 mph (SSE)    
Max Wind Speed 20 mph    
Max Gust Speed 25 mph    
Visibility 10 miles    
Events      
T = Trace of Precipitation, MM = Missing Value Source: NWS Daily Summary

Daily Weather History Graph

Daily Weather History Graph

Search for Another Location

Airport or City:

Trip Planner

Search our weather history database for the weather conditions in past years. The results will help you decide how hot, cold, wet, or windy it might be!

Date:

Astronomy

Aug. 20, 2013 Rise Set
Actual Time 7:07 AM CDT 8:30 PM CDT
Civil Twilight 6:40 AM CDT 8:57 PM CDT
Nautical Twilight 6:08 AM CDT 9:29 PM CDT
Astronomical Twilight 5:33 AM CDT 10:03 PM CDT
Moon 8:04 PM CDT (8/20) 6:39 AM CDT (8/20)
Length of Visible Light 14h 16m
Length of Day
13h 22m
Full, 100% of the Moon is Illuminated
Aug 20
Full
Aug 20
Full
Aug 28
Last Quarter
Sep 5
New
Sep 12
First Quarter

Hourly Weather History & Observations

Time (CDT) Temp. Heat Index Dew Point Humidity Pressure Visibility Wind Dir Wind Speed Gust Speed Precip Events Conditions
12:53 AM 73.9 °F - 61.0 °F 64% 29.90 in 10.0 mi South 8.1 mph - N/A   Clear
1:53 AM 72.0 °F - 61.0 °F 68% 29.90 in 10.0 mi SSE 6.9 mph - N/A   Clear
2:53 AM 71.1 °F - 60.1 °F 68% 29.88 in 10.0 mi SSE 8.1 mph - N/A   Clear
3:53 AM 71.1 °F - 60.1 °F 68% 29.87 in 10.0 mi South 9.2 mph - N/A   Clear
4:53 AM 69.1 °F - 60.1 °F 73% 29.87 in 10.0 mi South 6.9 mph - N/A   Clear
5:53 AM 68.0 °F - 60.1 °F 76% 29.87 in 10.0 mi South 8.1 mph - N/A   Clear
6:53 AM 66.9 °F - 59.0 °F 76% 29.88 in 10.0 mi South 8.1 mph - N/A   Clear
7:53 AM 66.9 °F - 60.1 °F 79% 29.90 in 10.0 mi South 8.1 mph - N/A   Clear
8:53 AM 72.0 °F - 60.1 °F 66% 29.90 in 10.0 mi South 9.2 mph - N/A   Clear
9:53 AM 75.9 °F - 60.1 °F 58% 29.90 in 10.0 mi South 18.4 mph 25.3 mph N/A   Clear
10:53 AM 80.1 °F 81.2 °F 62.1 °F 54% 29.91 in 10.0 mi South 11.5 mph - N/A   Clear
11:53 AM 82.9 °F 83.7 °F 62.1 °F 49% 29.90 in 10.0 mi South 11.5 mph 17.3 mph N/A   Clear
12:53 PM 84.9 °F 85.9 °F 63.0 °F 48% 29.88 in 10.0 mi South 8.1 mph - N/A   Clear
1:53 PM 88.0 °F 88.4 °F 62.1 °F 42% 29.87 in 10.0 mi SSE 10.4 mph - N/A   Clear
2:53 PM 91.0 °F 91.5 °F 62.1 °F 38% 29.85 in 10.0 mi SSE 10.4 mph - N/A   Clear
3:53 PM 91.9 °F 91.5 °F 60.1 °F 34% 29.83 in 10.0 mi South 13.8 mph 21.9 mph N/A   Clear
4:53 PM 93.0 °F 92.3 °F 59.0 °F 32% 29.82 in 10.0 mi SSE 13.8 mph 21.9 mph N/A   Clear
5:53 PM 91.9 °F 91.5 °F 60.1 °F 34% 29.82 in 10.0 mi SSE 16.1 mph 21.9 mph N/A   Clear
6:53 PM 91.0 °F 90.5 °F 60.1 °F 35% 29.82 in 10.0 mi South 11.5 mph - N/A   Clear
7:53 PM 87.1 °F 86.7 °F 60.1 °F 40% 29.83 in 10.0 mi South 6.9 mph - N/A   Clear
8:53 PM 82.0 °F 82.7 °F 61.0 °F 49% 29.84 in 10.0 mi SSE 8.1 mph - N/A   Clear
9:53 PM 79.0 °F - 61.0 °F 54% 29.87 in 10.0 mi SE 9.2 mph - N/A   Clear
10:53 PM 77.0 °F - 61.0 °F 58% 29.88 in 10.0 mi SSE 9.2 mph - N/A   Clear
11:53 PM 77.0 °F - 60.1 °F 56% 29.88 in 10.0 mi SSE 11.5 mph - N/A   Clear